Погода в Альхесироса

Испания     36°08′26″N   5°27′12″W
темп.,
°C
ветер,
м/с
пор.,
м/с
влажн.,
%
обл.,
%
осадки,
мм/ч
давл.,
гПа
погр.,
м
14 апреля, ср
ср1423:00+13в51287100 0.0 1020694
02:00+14в71288100 0.0 1019856
05:00+13вюв71283100 0.0 1017828
08:00+13вюв61183100 0.1 1017795
11:00+14вюв71186100 0.3 1017899
14:00+12в61095100 2.2 1017777
17:00+11в41097100 2.6 1015626
20:00+11в51195100 2.7 1015781
15 апреля, чт
чт1523:00+12в51094100 0.1 1015830
02:00+13вюв41093100 0.1 1014821
05:00+13в41098100 0.3 1013739
08:00+13в4998100 0.8 1012685
11:00+13вюв3898100 0.6 1014700
14:00+13вюв3897100 2.6 1014694
17:00+12вюв3798100 1.0 1013581
20:00+12вюв3798100 1.5 1014590
16 апреля, пт
пт1623:00+12в4996100 0.3 1016656
02:00+12в3997100 0.4 1015554
05:00+12в3897100 0.6 1015603
08:00+12в2697100 0.8 1016472
11:00+14в368871 0.3 1017689
14:00+17вюв456550 0.4 10171100
17:00+18вюв336310 0.0 1016889
20:00+15вюв22774 0.0 1016370
17 апреля, сб
сб1723:00+11зсз11940 0.0 101711
02:00+12зсз228984 0.0 101640
05:00+12зсз229261 0.0 101523
08:00+11зсз119647 0.0 101515
11:00+18з2369100 0.0 1016525
14:00+22зсз5740100 0.0 10152104
17:00+22сз46250 0.0 10151936
20:00+17вюв24700 0.0 1017153
18 апреля, вс
вс1823:00+12в22840 0.0 102122
02:00+12в499652 0.1 1022565
05:00+10всв27956 0.1 1021150
08:00+9всв229564 0.1 102137
11:00+15вюв356224 0.0 1022733
14:00+18вюв344352 0.0 1021888
17:00+19вюв33415 0.0 1019689
20:00+15вюв23635 0.0 1019122